星链-33918 (STARLINK-33918)

导读

STARLINK-33918是由美国发射的星链系列卫星,于2025年5月2日成功入轨,属于SpaceX公司星链星座组网任务的组成部分。星链计划旨在构建全球卫星互联网星座,为全球各地用户提供低延迟、高速率的宽带网络服务,该卫星进一步扩充了星链星座的覆盖范围与服务能力。

基本信息
目录编号:
63796
目录名称:
STARLINK-33918
国际标识:
2025-091X
轨道中心:
EARTH
卫星名称:
星链-33918
卫星全名:
星链-33918 (STARLINK-33918)
卫星状态:
在轨 (已飞行501 天)
发射日期:
2025-05-02 UTC
国别 :
美国 (US)
星等 :
--
该卫星已列入 空间交会检测服务 Space Conjunction Data Service (SCDS) ,当前飞行风险评估等级: 高风险
轨道信息
数据来源 国际轨道数据
星历时间: 2026-09-14T19:36:57+0800
13小时前
查看轨道信息
半长轴: 6861.157km
偏心率: 0.0001563
轨道倾角: 42.997°
近地点辐角 247.251°
升交点赤经 66.498°
平近点角 112.817°
近地点: 481.947km
远地点: 484.093km
周期: 94.266分钟
每日圈数: 15.2759
详细信息
固有亮度:
5
最大亮度:
2.5
卫星平台:
Starlink V1.0
覆盖范围:
全球
运营商:
太空探索技术公司
运营商所在国:
美国
制造商(研发单位):
太空探索技术公司
制造商所在国:
美国
使用方式:
暂无
卫星简介
Starlink 计划是 SpaceX 推出的全球卫星互联网项目,通过发射低轨道卫星,为全球尤其是偏远地区提供高速、低延迟的互联网服务。自 2019 年起,Starlink 已部署数千颗卫星,旨在缩小全球数字鸿沟,推动互联网普及。该项目还为军事、航空等行业提供通信支持,带来广泛经济效益。
2D轨道图
3D轨道图
轨道高度分析图
轨道倾角分析图
轨道综合分析图
查看轨道综合分析图
交会数据列表
事件ID 空间交会对象 最接近时刻(TCA) 交会距离 交会风险概率(CRP) 交会风险指数(CRI) 操作
CDM_260916-190505-613806-379621
2026-09-16T
19:05:51+0000
0.280 km
中距离
4.232283E-4 高风险 0.88
CDM_260916-204605-778506-379621
2026-09-16T
20:46:48+0000
0.381 km
远距离
2.861593E-4 高风险 0.84
CDM_260917-133905-560306-379621
2026-09-17T
13:39:48+0000
0.436 km
远距离
1.51716E-4 高风险 0.79
CDM_260916-204705-653306-379622
2026-09-16T
20:47:24+0000
0.613 km
远距离
9.589912E-5 中风险 0.75
CDM_260916-052405-790006-379621
2026-09-16T
05:24:58+0000
0.949 km
远距离
2.07833E-5 中风险 0.61
CDM_260917-082605-613806-379621
2026-09-17T
08:26:09+0000
1.033 km
极远距离
1.522027E-5 中风险 0.59
CDM_260915-214805-919506-379622
2026-09-15T
21:48:38+0000
0.903 km
远距离
1.430713E-5 中风险 0.58
CDM_260916-065905-790006-379621
2026-09-16T
06:59:08+0000
1.099 km
极远距离
1.250358E-5 中风险 0.57
CDM_260917-050105-560306-379621
2026-09-17T
05:01:57+0000
1.099 km
极远距离
9.254874E-6 低风险 0.54
CDM_260916-201905-790006-379621
2026-09-16T
20:19:26+0000
1.294 km
极远距离
7.123623E-6 低风险 0.52
与全量物体交会距离演化趋势 订阅飞行安全评估服务
与全量物体交会风险概率演化趋势 订阅飞行安全评估服务